#timestamp,LO_Frequency,Hit,StdDev 
1609556415.5,286047003.0,N
1609556435.3,286047001.3,N
1609556455.1,286047004.1,N
1609556475.9,286047003.6,N
1609556495.7,286047001.4,N
1609556515.5,286047002.2,N
1609556535.4,286047001.4,N
1609556555.2,286047001.5,N
1609556575.1,286047002.0,N
1609556576.0,286047002.0,N
1609556595.8,286047002.3,N
1609556615.6,286047002.7,N
1609556635.5,286047002.4,N
1609556655.3,286047000.2,N
1609556675.1,286047000.0,N
1609556695.9,286047000.2,N
1609556715.7,286046999.8,N
1609556735.6,286047000.0,N
1609556755.4,286046998.4,N
1609556775.2,286046999.2,N
1609556795.1,286046996.7,N
1609556796.0,286046996.7,N
1609556815.8,286046997.2,N
1609556835.7,286046997.1,N
1609556855.5,286046999.2,N
1609556875.3,286047000.9,N
1609556895.2,286047000.5,N
1609556915.0,286047002.1,N
1609556915.9,286047002.1,N
1609556935.7,286047001.3,N
1609556955.6,286047004.2,N
1609556975.4,286047004.3,N
1609556995.3,286047001.8,N
1609557015.1,286047002.2,N
1609557035.8,286047002.0,N
1609557055.7,286047001.4,N
1609557075.5,286047001.3,N
1609557095.4,286047002.5,N
1609557115.2,286047001.8,N
1609557135.0,286047001.9,N
1609557135.9,286047001.9,N
1609557155.8,286047002.0,N
1609557175.6,286047001.7,N
1609557195.4,286047002.0,N
1609557215.3,286047002.2,N
1609557235.1,286047003.1,N
1609557255.9,286047003.2,N
1609557275.7,286047003.1,N
1609557295.5,286047005.6,N
1609557315.4,286047004.3,N
1609557335.2,286047004.2,N
1609557355.1,286047003.2,N
1609557356.0,286047003.2,N
1609557375.8,286047003.0,N
1609557395.6,286047003.5,N
1609557415.5,286047005.9,Y
1609557435.3,286047002.3,P
1609557455.2,286047000.4,N
1609557475.9,286047000.9,N
1609557495.7,286047000.5,N
1609557515.6,286047000.0,N
1609557535.4,286046998.1,N
1609557555.2,286046998.9,N
1609557575.1,286046996.9,N
1609557576.0,286046996.9,N
1609557595.8,286046996.8,N
1609557615.7,286046996.6,N
1609557635.5,286047001.2,N
1609557655.3,286047000.8,N
1609557675.2,286047000.8,N
1609557695.0,286046998.5,N
1609557695.9,286046998.5,N
1609557715.8,286046996.6,N
1609557735.6,286046995.2,N
1609557755.4,286046997.6,N
1609557775.3,286046997.5,N
1609557795.1,286046995.9,N
1609557815.8,286046995.2,N
1609557835.7,286046998.0,N
1609557855.5,286046997.5,N
1609557875.4,286046999.2,N
1609557895.2,286046999.6,N
1609557915.0,286046997.2,N
1609557915.9,286046997.2,N
1609557935.8,286046997.4,N
1609557955.6,286046995.3,N
1609557975.5,286046999.0,N
1609557995.3,286046998.5,N
1609558015.1,286047001.2,N
1609558035.9,286046999.6,N
1609558055.7,286046998.9,N
1609558075.5,286046999.4,N
1609558095.4,286046997.4,N
1609558115.2,286046997.1,N
1609558135.1,286046996.5,N
1609558136.0,286046996.5,N
1609558155.8,286046999.0,N
1609558175.6,286046999.5,N
1609558195.5,286047000.7,N
1609558215.3,286047001.4,N
1609558235.2,286047002.0,N
1609558255.9,286047002.7,N
1609558275.7,286047000.8,N
1609558295.6,286047000.8,N
1609558315.4,286046998.4,N
1609558335.2,286046999.1,N
1609558355.1,286046999.5,N
1609558356.0,286046999.5,N
1609558375.8,286046998.4,N
1609558395.7,286046999.4,N
1609558415.5,286046999.1,N
1609558435.3,286046996.5,N
1609558455.2,286046999.6,N
1609558475.0,286046997.5,N
1609558475.9,286046997.5,N
1609558495.8,286046995.7,N
1609558515.6,286046997.2,N
1609558535.4,286046998.3,N
1609558555.3,286046998.4,N
1609558575.1,286046998.6,N
1609558595.9,286047000.7,N
1609558615.7,286046998.4,N
1609558635.5,286046999.4,N
1609558655.4,286046998.5,N
1609558675.2,286046998.5,N
1609558695.0,286046999.3,N
1609558695.9,286046999.3,N
1609558715.8,286046996.6,N
1609558735.6,286046998.4,N
1609558755.5,286046998.4,N
1609558775.3,286046999.0,N
1609558795.1,286046998.5,N
1609558815.9,286046998.7,N
1609558835.7,286046999.0,N
1609558855.5,286046999.4,N
1609558875.4,286046999.2,N
1609558895.2,286046996.8,Y
1609558915.1,286046999.6,P
1609558916.0,286046999.6,N
1609558935.8,286046996.9,P
1609558955.6,286046998.7,N
1609558975.5,286047000.6,N
1609558995.3,286047000.7,N
1609559015.2,286046998.8,N
1609559035.9,286046999.1,N
1609559055.7,286046999.5,N
1609559075.6,286046999.5,N
1609559095.4,286046996.6,Y
1609559115.3,286046999.3,P
1609559135.1,286046998.4,P
1609559136.0,286046998.4,P
1609559155.8,286046999.0,N
1609559175.7,286046999.0,N
1609559195.5,286046998.6,Y
1609559215.4,286047001.0,P
1609559235.2,286047000.5,N
1609559255.0,286047002.8,P
1609559255.9,286047002.8,N
1609559275.8,286047000.0,N
1609559295.6,286047000.9,N
1609559315.4,286047001.0,N
1609559335.3,286046998.4,N
1609559355.1,286047000.9,N
1609559375.9,286047000.0,N
1609559395.7,286047000.4,N
1609559415.5,286046999.8,N
1609559435.4,286046999.8,N
1609559455.2,286047001.3,N
1609559475.1,286047003.8,Y
1609559476.0,286047003.8,P
1609559495.8,286047001.9,N
1609559515.6,286047002.4,N
1609559535.5,286047000.5,N
1609559555.3,286047000.0,N
1609559575.1,286047000.3,N
1609559595.9,286047000.4,N
1609559615.7,286046999.7,N
1609559635.6,286047000.5,N
1609559655.4,286047000.5,N
1609559675.2,286047002.4,N
1609559695.1,286047002.4,N
1609559696.0,286047002.4,N
1609559715.8,286047000.2,N
1609559735.7,286047004.0,Y
1609559755.5,286047002.3,P
1609559775.3,286047002.8,P
1609559795.2,286047000.1,N
1609559815.0,286046999.7,N
1609559815.9,286046999.7,N
1609559835.8,286047002.4,N
1609559855.6,286047000.1,N
1609559875.4,286047000.8,N
1609559895.3,286046998.3,N
1609559915.1,286047000.4,N
1609559935.8,286047001.2,N
1609559955.7,286047000.5,N
1609559975.5,286047001.0,N
1609559995.4,286046998.3,N
